User: anonymous   Login
Location: Bailleul
(50.3375°N, 2.8513°E)
Time: 20:49:54
(UTC+00:00)
Language:

HODOYOSHI 4 - Orbit

View from above orbital plane
View from above orbital plane
View from above satellite
View from above satellite

Ground track
Ground track

The orbit data is extracted from the following two-line orbital elements,

1 40011U 14033B   22022.50034931  .00000510  00000-0  71329-4 0  9992
2 40011  97.6992 261.5832 0026039 192.0558 168.0034 14.81443891410489
Epoch (UTC): 22 January 2022 12:00:30
Eccentricity: 0.0026039
inclination: 97.6992°
perigee height: 606 km
apogee height: 643 km
right ascension of ascending node: 261.5832°
argument of perigee: 192.0558°
revolutions per day: 14.81443891
mean anomaly at epoch: 168.0034°
orbit number at epoch: 41048

The dashed part of the orbit path shows where the satellite is in the earth's shadow,  

DLR